STARLINK-32000, 60289

Orbit data source: Space-Track

STARLINK-32000, 60289 is a payload satellite owned by SpaceX/Seattle (US) in LEO that was launched on Sun, 28 Jul 2024 UTC via an FALCON 9 launch vehicle from the Air Force Eastern Test Range (AFETR). Payload-class satellites include a variety of spacecraft equipped with specific instruments for various scientific and technological missions. These include communications satellites like Starlink; space stations such as the ISS; scientific satellites like the Hubble; Earth observation satellites from companies like Planet Labs, Umbra, and HawkEye 360; GPS; miniature CubeSats for education and research; and military/defense satellites.

Loading next visibility...
Identifier
60289, 2024-132M
Orbit
LEO
Country
Flag of USUS
Related business
Manufacturer
SpaceX/Seattle
Mission
Operational Commercial Communications
Bus & Motor
STARLINK V2M, Unknown motor
Mass
730 kg wet, ~700 kg dry
Launch date (UTC)
2024-07-28 (2 years ago)
Launch vehicle
FALCON 9
Launch site
Air Force Eastern Test Range (AFETR)
Object type
Payload
Rocket body
Debris
Shape & HBR
Box + 2 Pan, 17.7 m
Radar Cross Section
33.884 m², Large (>1 m²)

Expand to show TLE details & history
Last TLE update: 7 hours ago

TLE from 7 hours ago
0 STARLINK-32000
1 60289U 24132M   26178.52754654 -.00001875  00000-0 -48664-4 0  9994
2 60289  53.1615 261.7853 0001225 108.8873 251.2261 15.31710571108385
Epoch: 2026-06-27T12:39Z
TLE epoch observation values (Epoch: 2026-06-27T12:39:40.021Z)
Latitude
-0.00003°
Longitude
156.22811°
Altitude
471.879 km
Speed
7.631 km/s
True Right ascension
17h 27m 08s
True Declination
0° 00' 00"
Sunlit
Object was in full shadow at epoch
Visualization orbit readout
Latitude
Unknown
Longitude
Unknown
Altitude
Unknown
Speed
Unknown
Apparent Right ascension
Unknown
Apparent Declination
Unknown
Sunlit
N/A
Visualization observer readout
Local Sidereal Time
07:16:51
Azimuth
Unknown
Elevation
Unknown
Doppler factor
Unknown
Orbital elements
Apogee altitude
471.804 km
Perigee altitude
470.126 km
Semi-major axis
6,849.102 km
Eccentricity
0.00012
Inclination
53.1615°
RAAN
261.7853°
Arg. of periapsis
108.8873°
True anomaly
251.21281°
Mean anomaly
251.2261°
Eccentric anomaly
251.21945°
Mean motion
3.82906 °/min
Orbital period
94.02 mins
BSTAR
-0.000048664
Loading maneuver chart data...
Computing Atmospheric mass density...
Loading historical data...
Loading historical data...
Loading historical data...
Loading historical data...
Loading historical data...
Loading historical data...
Loading historical data...

Documentation

Showing up to 5 results
|